Location: Julian California
(33.0790°N, 116.6010°W)
Time: 06:07:34
(UTC-07:00)

Cosmos 773 Rocket - Pass Details

Date: 19 May 2017
Orbit: 747 x 776 km, 74.1° (Epoch: 28 May)

Event Time Altitude Azimuth Distance (km) Brightness Sun altitude
Exits shadow 21:25:03 - 199° (SSW) 3,075 6.9 -18.9°
Reaches altitude 10° 21:27:06 10° 200° (SSW) 2,269 6.2 -19.3°
Maximum altitude 21:32:15 78° 287° (WNW) 769 4.0 -20.1°
Drops below altitude 10° 21:37:23 10° 14° (NNE) 2,268 6.8 -20.9°
Sets 21:39:45 0° 16° (NNE) 3,193 7.6 -21.2°
